Corpus Christi NAS, TX

4:19 PM CDT on March 26, 2017 (GMT -0500)
Corpus Christi Naval Air Station-Truax

Weather History for KNGP - August, 2013

Change the Weather History Date:

Wednesday, August 28, 2013

  Actual Average Record
Temperature  
Mean Temperature 84 °F -  
Max Temperature 90 °F 89 °F 100 °F (2011)
Min Temperature 78 °F 75 °F 70 °F (2015)
Cooling Degree Days 19    
Growing Degree Days 34 (Base 50)    
Moisture  
Dew Point 77 °F    
Average Humidity 80    
Maximum Humidity 96    
Minimum Humidity 61    
Precipitation  
Precipitation 0.17 in - - ()
Sea Level Pressure  
Sea Level Pressure 30.02 in    
Wind  
Wind Speed 7 mph (East)    
Max Wind Speed 16 mph    
Max Gust Speed 17 mph    
Visibility 10 miles    
Events      
Averages and records for this station are not official NWS values.
T = Trace of Precipitation, MM = Missing Value Source: NWS Daily Summary

Daily Weather History Graph

Daily Weather History Graph

Search for Another Location

Airport or City:

Trip Planner

Search our weather history database for the weather conditions in past years. The results will help you decide how hot, cold, wet, or windy it might be!

Date:

Astronomy

Aug. 28, 2013 Rise Set
Actual Time 7:06 AM CDT 7:53 PM CDT
Civil Twilight 6:42 AM CDT 8:17 PM CDT
Nautical Twilight 6:14 AM CDT 8:45 PM CDT
Astronomical Twilight 5:45 AM CDT 9:14 PM CDT
Moon 12:28 AM CDT (8/28) 2:18 PM CDT (8/28)
Length of Visible Light 13h 35m
Length of Day
12h 47m
Waning Gibbous, 47% of the Moon is Illuminated
Aug 28
Waning Gibbous
Sep 5
New
Sep 12
First Quarter
Sep 19
Full
Sep 26
Last Quarter

Hourly Weather History & Observations

Time (CDT) Temp. Heat Index Dew Point Humidity Pressure Visibility Wind Dir Wind Speed Gust Speed Precip Events Conditions
12:56 AM 82.0 °F 90.2 °F 77.0 °F 85% 30.02 in 10.0 mi SE 9.2 mph - N/A   Clear
1:56 AM 80.1 °F 85.8 °F 77.0 °F 90% 30.01 in 10.0 mi SE 6.9 mph - N/A   Clear
2:56 AM 79.0 °F - 77.0 °F 94% 30.01 in 10.0 mi SSE 4.6 mph - N/A   Clear
3:56 AM 78.1 °F - 77.0 °F 96% 30.01 in 10.0 mi SSE 3.5 mph - N/A   Clear
4:56 AM 78.1 °F - 77.0 °F 96% 30.00 in 10.0 mi Calm Calm - N/A   Clear
5:56 AM 78.1 °F - 77.0 °F 96% 30.01 in 10.0 mi Calm Calm - N/A   Clear
6:56 AM 79.0 °F - 77.0 °F 94% 30.02 in 10.0 mi Calm Calm - N/A   Scattered Clouds
7:56 AM 81.0 °F 88.6 °F 78.1 °F 91% 30.03 in 10.0 mi Calm Calm - N/A   Scattered Clouds
8:56 AM 84.9 °F 94.1 °F 75.9 °F 74% 30.04 in 10.0 mi ENE 3.5 mph - N/A   Scattered Clouds
9:56 AM 86.0 °F 96.0 °F 75.9 °F 72% 30.06 in 10.0 mi NNE 8.1 mph - N/A   Scattered Clouds
10:56 AM 88.0 °F 97.5 °F 75.0 °F 65% 30.07 in 10.0 mi NE 10.4 mph - N/A   Scattered Clouds
11:56 AM 89.1 °F 100.2 °F 75.9 °F 65% 30.07 in 10.0 mi NNE 9.2 mph - N/A   Scattered Clouds
12:56 PM 88.0 °F 100.2 °F 77.0 °F 70% 30.06 in 10.0 mi NE 9.2 mph 17.3 mph N/A   Scattered Clouds
1:56 PM 90.0 °F 100.2 °F 75.0 °F 61% 30.05 in 10.0 mi ENE 11.5 mph - N/A   Mostly Cloudy
2:56 PM 87.1 °F 96.3 °F 75.0 °F 67% 30.04 in 10.0 mi East 16.1 mph - N/A   Mostly Cloudy
3:56 PM 88.0 °F 100.2 °F 77.0 °F 70% 30.01 in 10.0 mi East 12.7 mph - N/A   Mostly Cloudy
4:56 PM 87.1 °F 98.8 °F 77.0 °F 72% 30.00 in 10.0 mi East 12.7 mph - N/A   Scattered Clouds
5:56 PM 87.1 °F 98.8 °F 77.0 °F 72% 30.00 in 10.0 mi East 13.8 mph - N/A   Scattered Clouds
6:56 PM 86.0 °F 96.0 °F 75.9 °F 72% 29.99 in 10.0 mi East 13.8 mph - N/A   Partly Cloudy
7:56 PM 84.0 °F 94.8 °F 78.1 °F 82% 30.00 in 10.0 mi East 11.5 mph - N/A   Partly Cloudy
8:56 PM 82.9 °F 91.8 °F 77.0 °F 82% 30.00 in 10.0 mi ESE 11.5 mph - N/A   Partly Cloudy
9:56 PM 82.9 °F 92.8 °F 78.1 °F 85% 30.01 in 10.0 mi ESE 12.7 mph - N/A   Partly Cloudy
10:56 PM 82.9 °F 93.8 °F 79.0 °F 88% 30.02 in 10.0 mi SE 10.4 mph - N/A   Partly Cloudy
11:56 PM 82.0 °F 90.2 °F 77.0 °F 85% 30.02 in 10.0 mi SE 12.7 mph - N/A   Partly Cloudy